Cold Bay, AK

8:11 PM AKDT on June 25, 2017 (GMT -0800)
Cold Bay

Weather History for PACD - September, 2012

Change the Weather History Date:

Monday, September 17, 2012

  Actual Average Record
Temperature  
Mean Temperature 46 °F 48 °F  
Max Temperature 54 °F 53 °F 59 °F (1954)
Min Temperature 37 °F 43 °F 32 °F (1966)
Degree Days  
Heating Degree Days 19 17  
Month to date heating degree days 304 262  
Since 1 July heating degree days 1232 1101  
Cooling Degree Days 0 0  
Month to date cooling degree days 0 0  
Year to date cooling degree days 0 0  
Moisture  
Dew Point 45 °F    
Average Humidity 85    
Maximum Humidity 96    
Minimum Humidity 65    
Precipitation  
Precipitation 0.06 in 0.17 in 2.11 in (1985)
Month to date precipitation 2.81 2.61  
Year to date precipitation 30.30 25.35  
Snow  
Snow 0.00 in 0.00 in - ()
Month to date snowfall 0.0 0.0  
Since 1 July snowfall 0.0 0.0  
Since 1 September snowfall 0.0 0.0  
Snow Depth 0.00 in    
Sea Level Pressure  
Sea Level Pressure 29.43 in    
Wind  
Wind Speed 20 mph (SE)    
Max Wind Speed 35 mph    
Max Gust Speed 43 mph    
Visibility 8 miles    
Events Rain    
T = Trace of Precipitation, MM = Missing Value Source: NWS Daily Summary

Daily Weather History Graph

Daily Weather History Graph

Search for Another Location

Airport or City:

Trip Planner

Search our weather history database for the weather conditions in past years. The results will help you decide how hot, cold, wet, or windy it might be!

Date:

Astronomy

Sep. 17, 2012 Rise Set
Actual Time 8:28 AM AKDT 9:00 PM AKDT
Civil Twilight 7:51 AM AKDT 9:37 PM AKDT
Nautical Twilight 7:07 AM AKDT 10:21 PM AKDT
Astronomical Twilight 6:20 AM AKDT 11:07 PM AKDT
Moon 11:04 AM AKDT (9/17) 9:14 PM AKDT (9/17)
Length of Visible Light 13h 45m
Length of Day
12h 32m
Waxing Crescent, 4% of the Moon is Illuminated
Sep 17
Waxing Crescent
Sep 22
First Quarter
Sep 29
Full
Oct 7
Last Quarter
Oct 15
New

Hourly Weather History & Observations

Time (AKDT) Temp. Windchill Dew Point Humidity Pressure Visibility Wind Dir Wind Speed Gust Speed Precip Events Conditions
12:53 AM 36.0 °F 31.1 °F 32.0 °F 86% 29.69 in 10.0 mi South 5.8 mph - N/A   Clear
1:53 AM 42.1 °F 35.2 °F 36.0 °F 79% 29.68 in 10.0 mi South 12.7 mph - N/A   Partly Cloudy
2:53 AM 44.1 °F 36.8 °F 39.0 °F 82% 29.68 in 10.0 mi SE 16.1 mph - N/A   Mostly Cloudy
3:53 AM 46.0 °F 39.3 °F 42.1 °F 86% 29.65 in 10.0 mi SSE 16.1 mph - N/A   Mostly Cloudy
4:53 AM 46.0 °F 38.5 °F 43.0 °F 89% 29.62 in 10.0 mi SE 19.6 mph 27.6 mph 0.00 in Rain Light Rain
5:53 AM 46.0 °F 38.0 °F 43.0 °F 89% 29.60 in 10.0 mi SE 21.9 mph 29.9 mph 0.00 in   Overcast
6:22 AM 46.4 °F 39.8 °F 42.8 °F 87% 29.58 in 7.0 mi SE 16.1 mph - 0.02 in Rain Light Rain
6:53 AM 46.9 °F - 44.1 °F 90% 29.56 in 9.0 mi SE 27.6 mph 33.4 mph 0.03 in Rain Light Rain
7:53 AM 48.0 °F - 45.0 °F 89% 29.53 in 9.0 mi SE 21.9 mph - 0.01 in Rain Light Rain
8:53 AM 48.0 °F - 45.0 °F 89% 29.49 in 8.0 mi SE 18.4 mph 28.8 mph 0.00 in   Overcast
9:53 AM 48.9 °F - 45.0 °F 86% 29.43 in 7.0 mi SE 27.6 mph 35.7 mph 0.00 in Rain Light Rain
10:35 AM 48.2 °F - 46.4 °F 93% 29.42 in 10.0 mi SE 29.9 mph 35.7 mph 0.00 in Rain Light Rain
10:43 AM 48.2 °F - 46.4 °F 93% 29.40 in 10.0 mi SE 29.9 mph 36.8 mph 0.00 in Rain Light Rain
10:53 AM 48.9 °F - 46.9 °F 93% 29.40 in 10.0 mi SE 28.8 mph 38.0 mph 0.00 in Rain Light Rain
11:53 AM 51.1 °F - 46.9 °F 86% 29.35 in 10.0 mi SE 29.9 mph 35.7 mph 0.00 in Rain Light Rain
12:18 PM 51.8 °F - 48.2 °F 88% 29.34 in 10.0 mi SE 31.1 mph 42.6 mph 0.00 in Rain Light Rain
12:34 PM 51.8 °F - 48.2 °F 88% 29.33 in 2.0 mi SE 26.5 mph 36.8 mph 0.00 in   Light Drizzle
12:43 PM 51.8 °F - 48.2 °F 88% 29.34 in 2.0 mi SE 28.8 mph 36.8 mph 0.00 in   Light Drizzle
12:49 PM 50.0 °F - 48.2 °F 94% 29.35 in 3.0 mi SE 21.9 mph 36.8 mph 0.01 in   Light Drizzle
12:50 PM 50.0 °F - 48.9 °F 96% 29.36 in 3.0 mi SE 20.7 mph 36.8 mph 0.01 in   Light Drizzle
12:57 PM 50.0 °F - 48.2 °F 94% 29.35 in 4.0 mi SE 20.7 mph 29.9 mph 0.00 in   Light Drizzle
1:10 PM 50.0 °F - 48.2 °F 94% 29.35 in 2.0 mi SE 19.6 mph 28.8 mph 0.00 in Rain Light Rain
1:38 PM 51.8 °F - 50.0 °F 94% 29.34 in 6.0 mi SE 18.4 mph 29.9 mph 0.01 in Rain Light Rain
1:53 PM 52.0 °F - 50.0 °F 93% 29.34 in 10.0 mi SE 11.5 mph - 0.01 in   Overcast
2:53 PM 52.0 °F - 45.0 °F 77% 29.34 in 10.0 mi SE 23.0 mph 29.9 mph N/A   Partly Cloudy
3:08 PM 50.0 °F - 46.4 °F 87% 29.33 in 10.0 mi SSE 25.3 mph 31.1 mph N/A   Scattered Clouds
3:53 PM 50.0 °F - 46.0 °F 86% 29.34 in 10.0 mi ESE 17.3 mph 25.3 mph N/A   Overcast
4:53 PM 52.0 °F - 44.1 °F 74% 29.35 in 10.0 mi South 16.1 mph 27.6 mph N/A   Overcast
5:53 PM 50.0 °F - 46.0 °F 86% 29.36 in 10.0 mi SE 19.6 mph 24.2 mph N/A   Overcast
6:24 PM 51.8 °F - 46.4 °F 82% 29.36 in 10.0 mi SE 16.1 mph 24.2 mph N/A   Overcast
6:40 PM 51.8 °F - 46.4 °F 82% 29.36 in 10.0 mi SSE 17.3 mph 23.0 mph N/A   Mostly Cloudy
6:53 PM 52.0 °F - 46.0 °F 80% 29.36 in 10.0 mi SSE 12.7 mph 23.0 mph N/A   Mostly Cloudy
7:53 PM 51.1 °F - 44.1 °F 77% 29.36 in 10.0 mi SSE 9.2 mph - N/A   Clear
8:53 PM 46.9 °F - 42.1 °F 83% 29.37 in 10.0 mi South 9.2 mph - N/A   Clear
9:53 PM 48.0 °F - 39.9 °F 74% 29.37 in 10.0 mi South 9.2 mph 19.6 mph N/A   Clear
10:53 PM 48.0 °F - 41.0 °F 77% 29.36 in 10.0 mi SSE 21.9 mph 29.9 mph N/A   Clear
11:53 PM 48.0 °F - 43.0 °F 83% 29.36 in 10.0 mi SSE 21.9 mph 26.5 mph N/A   Clear